HG8GL Weather Reports


time (UTC)temp
C
wind
direction
speed
KPH
gust
KPH
rain 1hr
cm
rain 24hr
cm
rain mn
cm
humidity
%
barometer
mb
20260906005007 16 248 0.0 0.0 0.00 0.10 0.00 87 1022.0
20260906004507 16 262 0.0 0.0 0.00 0.10 0.00 87 1022.0
20260906004010 16 249 0.0 0.0 0.00 0.10 0.00 87 1022.0
20260906003010 16 254 0.0 0.0 0.00 0.10 0.00 87 1022.0
20260906002508 16 243 0.0 0.0 0.00 0.10 0.00 87 1022.0
20260906002009 16 259 0.0 0.0 0.00 0.10 0.00 87 1022.0
20260906001508 16 262 0.0 0.0 0.00 0.10 0.00 86 1022.0
20260906001012 16 263 0.0 0.0 0.00 0.10 0.00 87 1022.0
20260906000007 16 253 0.0 0.0 0.00 0.10 0.00 87 1022.0
20260905235009 16 263 0.0 0.0 0.00 0.10 0.00 88 1022.0
20260905234008 16 272 0.0 0.0 0.00 0.10 0.00 88 1022.0
20260905233510 16 280 0.0 0.0 0.00 0.10 0.00 88 1022.0
20260905233010 16 275 0.0 0.0 0.00 0.10 0.00 88 1022.0
20260905232508 16 253 0.0 0.0 0.00 0.10 0.00 88 1022.0
20260905231509 16 263 0.0 0.0 0.00 0.10 0.00 88 1022.0
20260905231010 16 270 0.0 0.0 0.00 0.10 0.00 88 1022.0
20260905230011 16 285 0.0 0.0 0.00 0.10 0.00 88 1022.0
20260905224509 16 251 0.0 0.0 0.00 0.10 0.10 89 1022.0
20260905224008 16 264 0.0 0.0 0.00 0.10 0.10 89 1022.0
20260905223010 16 275 0.0 0.0 0.00 0.10 0.10 89 1022.0
20260905222514 16 274 0.0 0.0 0.00 0.10 0.10 90 1022.0
20260905222010 16 259 0.0 0.0 0.00 0.10 0.10 90 1022.0
20260905221509 16 261 0.0 0.0 0.00 0.10 0.10 90 1022.0
20260905220008 16 292 0.0 0.0 0.00 0.10 0.10 89 1022.0
20260905215510 16 255 0.0 0.0 0.00 0.10 0.10 89 1022.0
20260905215008 16 254 0.0 0.0 0.00 0.10 0.10 89 1022.0
20260905214010 16 266 0.0 0.0 0.00 0.10 0.10 88 1022.0
20260905213512 16 259 0.0 0.0 0.00 0.10 0.10 88 1022.0
20260905213009 16 248 0.0 0.0 0.00 0.10 0.10 87 1022.0
20260905211008 16 256 0.0 0.0 0.00 0.10 0.10 86 1022.0
20260905210008 16 261 0.0 0.0 0.00 0.10 0.10 86 1022.0
20260905205508 16 270 0.0 0.0 0.00 0.10 0.10 85 1022.0
20260905205007 16 255 0.0 0.0 0.00 0.10 0.10 85 1021.0
20260905204508 16 260 0.0 0.0 0.00 0.10 0.10 84 1021.0
20260905204008 17 252 0.0 0.0 0.00 0.10 0.10 84 1021.0
20260905203008 17 257 0.0 0.0 0.00 0.10 0.10 83 1022.0
20260905202509 17 254 0.0 0.0 0.00 0.10 0.10 83 1022.0
20260905202008 17 292 0.0 0.0 0.00 0.10 0.10 83 1021.0
20260905201508 17 292 0.0 0.0 0.00 0.10 0.10 83 1021.0
20260905200008 17 292 0.0 0.0 0.00 0.10 0.10 83 1021.0
20260905195508 17 298 0.0 0.0 0.00 0.10 0.10 83 1021.0
20260905195009 17 298 0.0 0.0 0.00 0.10 0.10 83 1020.0
20260905193509 17 278 0.0 0.0 0.00 0.10 0.10 83 1021.0
20260905193011 17 267 0.0 0.0 0.00 0.10 0.10 82 1021.0
20260905192507 17 253 0.0 0.0 0.00 0.10 0.10 82 1021.0
20260905191508 17 270 0.0 0.0 0.00 0.10 0.10 82 1020.0
20260905191008 17 270 0.0 0.0 0.00 0.10 0.10 83 1020.0
20260905190010 17 287 0.0 0.0 0.00 0.10 0.10 82 1020.0
20260905185512 18 288 0.0 0.0 0.00 0.10 0.10 81 1020.0
20260905184011 18 299 0.0 0.0 0.00 0.10 0.10 80 1020.0
20260905183508 18 300 0.0 0.0 0.00 0.10 0.10 80 1021.0
20260905183009 18 270 0.0 0.0 0.00 0.10 0.10 80 1021.0
20260905181511 18 249 0.0 0.0 0.03 0.10 0.10 79 1020.0
20260905181008 18 257 0.0 0.0 0.03 0.10 0.10 78 1020.0
20260905180008 18 251 0.0 0.0 0.08 0.10 0.10 78 1020.0
20260905175511 18 251 0.0 0.0 0.10 0.10 0.10 78 1020.0
20260905175008 18 248 0.0 0.0 0.10 0.10 0.10 77 1019.0
20260905174510 18 251 0.0 0.0 0.10 0.10 0.10 75 1019.0
20260905174007 19 248 0.0 0.0 0.10 0.10 0.10 74 1019.0
20260905173512 19 257 0.0 0.0 0.10 0.10 0.10 73 1019.0
20260905172508 19 248 0.0 0.0 0.08 0.08 0.08 71 1019.0
20260905172009 20 253 0.0 0.0 0.08 0.08 0.08 70 1019.0
20260905171511 20 250 0.0 0.0 0.08 0.08 0.08 67 1019.0
20260905170010 21 272 0.0 0.0 0.03 0.03 0.03 60 1019.0
20260905165510 21 271 0.0 0.0 0.00 0.00 0.00 52 1019.0
20260905165010 21 267 0.0 0.0 0.00 0.00 0.00 48 1019.0
20260905164509 22 275 0.0 0.0 0.00 0.00 0.00 46 1019.0
20260905164009 22 257 0.0 0.0 0.00 0.00 0.00 45 1019.0
20260905163008 22 282 0.0 0.0 0.00 0.00 0.00 45 1019.0
20260905162510 22 252 0.0 0.0 0.00 0.00 0.00 45 1019.0
20260905162008 22 256 0.0 0.0 0.00 0.00 0.00 44 1019.0
20260905161010 22 275 0.0 0.0 0.00 0.00 0.00 44 1019.0
20260905160010 22 259 0.0 0.0 0.00 0.00 0.00 44 1019.0
20260905155511 22 276 0.0 0.0 0.00 0.00 0.00 44 1019.0
20260905154510 22 295 0.0 0.0 0.00 0.00 0.00 43 1019.0
20260905154011 22 277 0.0 0.0 0.00 0.00 0.00 43 1019.0
20260905153509 22 295 0.0 0.0 0.00 0.00 0.00 44 1019.0
20260905153007 22 297 0.0 0.0 0.00 0.00 0.00 43 1019.0
20260905152008 22 292 0.0 0.0 0.00 0.00 0.00 43 1019.0
20260905151507 22 292 0.0 0.0 0.00 0.00 0.00 43 1019.0
20260905145510 22 269 0.0 0.0 0.00 0.00 0.00 42 1018.0
20260905145011 22 273 0.0 0.0 0.00 0.00 0.00 42 1018.0
20260905144508 22 275 0.0 0.0 0.00 0.00 0.00 41 1018.0
20260905143509 22 332 0.0 0.0 0.00 0.00 0.00 42 1019.0
20260905143010 22 291 0.0 0.0 0.00 0.00 0.00 41 1019.0
20260905142010 23 303 0.0 0.0 0.00 0.00 0.00 40 1019.0
20260905141507 23 298 0.0 0.0 0.00 0.00 0.00 38 1019.0
20260905140008 24 323 0.0 0.0 0.00 0.00 0.00 36 1018.0
20260905135511 24 353 0.0 0.0 0.00 0.00 0.00 36 1018.0
20260905135011 25 291 0.0 0.0 0.00 0.00 0.00 37 1019.0
20260905134509 25 292 0.0 0.0 0.00 0.00 0.00 36 1019.0
20260905134009 26 321 0.0 0.0 0.00 0.00 0.00 34 1019.0
20260905133511 27 321 0.0 0.0 0.00 0.00 0.00 31 1018.0
20260905133008 27 3 0.0 0.0 0.00 0.00 0.00 30 1018.0
20260905132008 28 346 0.0 0.0 0.00 0.00 0.00 30 1018.0
20260905131510 28 317 0.0 0.0 0.00 0.00 0.00 30 1018.0
20260905131010 28 315 0.0 0.0 0.00 0.00 0.00 29 1018.0
20260905130010 29 342 0.0 0.0 0.00 0.00 0.00 29 1018.0
20260905125508 30 341 0.0 0.0 0.00 0.00 0.00 29 1018.0
20260905125009 30 335 0.0 0.0 0.00 0.00 0.00 28 1018.0
20260905124508 30 311 0.0 0.0 0.00 0.00 0.00 28 1018.0
20260905124007 30 345 0.0 0.0 0.00 0.00 0.00 28 1018.0
20260905123510 30 331 0.0 0.0 0.00 0.00 0.00 28 1018.0
20260905123009 30 333 0.0 0.0 0.00 0.00 0.00 28 1018.0
20260905122510 30 327 0.0 0.0 0.00 0.00 0.00 28 1018.0
20260905122008 30 317 0.0 0.0 0.00 0.00 0.00 28 1018.0
20260905121508 31 322 0.0 0.0 0.00 0.00 0.00 28 1018.0
20260905120008 31 297 0.0 0.0 0.00 0.00 0.00 28 1018.0
20260905115008 31 309 0.0 0.0 0.00 0.00 0.00 29 1018.0
20260905114508 31 334 0.0 0.0 0.00 0.00 0.00 29 1018.0
20260905114011 31 317 0.0 0.0 0.00 0.00 0.00 29 1018.0
20260905113511 31 343 0.0 0.0 0.00 0.00 0.00 29 1018.0
20260905113008 31 303 0.0 0.0 0.00 0.00 0.00 29 1018.0
20260905112509 31 327 0.0 0.0 0.00 0.00 0.00 29 1018.0
20260905112009 31 309 0.0 0.0 0.00 0.00 0.00 29 1018.0
20260905111509 31 325 0.0 0.0 0.00 0.00 0.00 30 1018.0
20260905110010 30 319 0.0 0.0 0.00 0.00 0.00 30 1018.0
20260905105511 30 349 0.0 0.0 0.00 0.00 0.00 30 1018.0
20260905105008 30 326 0.0 0.0 0.00 0.00 0.00 30 1018.0
20260905104508 30 305 0.0 0.0 0.00 0.00 0.00 31 1018.0
20260905104008 30 335 0.0 0.0 0.00 0.00 0.00 31 1018.0
20260905103509 30 345 0.0 0.0 0.00 0.00 0.00 31 1018.0
20260905103007 30 350 0.0 0.0 0.00 0.00 0.00 32 1018.0
20260905102508 29 337 0.0 0.0 0.00 0.00 0.00 33 1018.0
20260905102008 29 353 0.0 0.0 0.00 0.00 0.00 35 1018.0
20260905101009 29 335 0.0 0.0 0.00 0.00 0.00 35 1018.0
20260905100008 30 334 0.0 0.0 0.00 0.00 0.00 34 1018.0
20260905095507 31 334 0.0 0.0 0.00 0.00 0.00 34 1018.0
20260905095007 31 326 0.0 0.0 0.00 0.00 0.00 33 1017.0
20260905094510 31 305 0.0 0.0 0.00 0.00 0.00 33 1017.0
20260905094008 31 338 0.0 0.0 0.00 0.00 0.00 33 1017.0
20260905093510 32 345 0.0 0.0 0.00 0.00 0.00 32 1017.0
20260905093016 32 327 0.0 0.0 0.00 0.00 0.00 32 1017.0
20260905092509 32 332 0.0 0.0 0.00 0.00 0.00 33 1017.0
20260905092008 32 336 0.0 0.0 0.00 0.00 0.00 33 1017.0
20260905091511 32 357 0.0 0.0 0.00 0.00 0.00 33 1017.0
20260905091008 32 292 0.0 0.0 0.00 0.00 0.00 33 1017.0
20260905084511 31 305 0.0 0.0 0.00 0.00 0.00 34 1016.0
20260905083509 31 289 0.0 0.0 0.00 0.00 0.00 34 1016.0
20260905083009 31 306 0.0 0.0 0.00 0.00 0.00 35 1016.0
20260905082514 31 316 0.0 0.0 0.00 0.00 0.00 35 1016.0
20260905082009 31 295 0.0 0.0 0.00 0.00 0.00 35 1017.0
20260905081010 30 292 0.0 0.0 0.00 0.00 0.00 36 1017.0
20260905080011 30 288 0.0 0.0 0.00 0.00 0.00 38 1016.0
20260905075508 30 271 0.0 0.0 0.00 0.00 0.00 38 1016.0
20260905075010 29 246 0.0 0.0 0.00 0.00 0.00 39 1015.0
20260905074013 28 261 0.0 0.0 0.00 0.00 0.00 39 1015.0
20260905073010 28 257 0.0 0.0 0.00 0.00 0.00 40 1015.0
20260905071511 27 254 0.0 0.0 0.00 0.00 0.00 42 1015.0
20260905071011 27 227 0.0 0.0 0.00 0.00 0.00 43 1015.0
20260905070013 26 243 0.0 0.0 0.00 0.00 0.00 44 1015.0
20260905065015 25 233 0.0 0.0 0.00 0.00 0.00 45 1015.0
20260905064515 25 261 0.0 0.0 0.00 0.00 0.00 47 1015.0
20260905063524 24 243 0.0 0.0 0.00 0.00 0.00 48 1015.0
20260905063019 24 228 0.0 0.0 0.00 0.00 0.00 49 1015.0
20260905062521 23 243 0.0 0.0 0.00 0.00 0.00 49 1015.0
20260905062016 23 201 0.0 0.0 0.00 0.00 0.00 50 1015.0
20260905061514 23 197 0.0 0.0 0.00 0.00 0.00 51 1015.0
20260905061010 23 234 0.0 0.0 0.00 0.00 0.00 51 1015.0
20260905060011 22 218 0.0 0.0 0.00 0.00 0.00 53 1014.0
20260905055512 22 178 0.0 0.0 0.00 0.00 0.00 53 1014.0
20260905055011 22 180 0.0 0.0 0.00 0.00 0.00 53 1014.0
20260905054510 21 223 0.0 0.0 0.00 0.00 0.00 54 1014.0
20260905054013 21 221 0.0 0.0 0.00 0.00 0.00 54 1014.0
20260905053512 21 204 0.0 0.0 0.00 0.00 0.00 54 1014.0
20260905053010 21 175 0.0 0.0 0.00 0.00 0.00 54 1014.0
20260905052011 21 171 0.0 0.0 0.00 0.00 0.00 54 1014.0
20260905051511 21 198 0.0 0.0 0.00 0.00 0.00 54 1014.0
20260905051011 20 178 0.0 0.0 0.00 0.00 0.00 54 1014.0
20260905050011 20 166 0.0 0.0 0.00 0.00 0.00 53 1014.0
20260905045512 20 169 0.0 0.0 0.00 0.00 0.00 53 1014.0
20260905045012 20 192 0.0 0.0 0.00 0.00 0.00 53 1014.0
20260905044511 20 170 0.0 0.0 0.00 0.00 0.00 53 1014.0
20260905044011 20 179 0.0 0.0 0.00 0.00 0.00 53 1014.0
20260905043512 20 158 0.0 0.0 0.00 0.00 0.00 52 1014.0
20260905042530 20 176 0.0 0.0 0.00 0.00 0.00 52 1014.0
20260905042011 20 188 0.0 0.0 0.00 0.00 0.00 52 1013.0
20260905041514 20 175 0.0 0.0 0.00 0.00 0.00 51 1013.0
20260905041013 20 174 0.0 0.0 0.00 0.00 0.00 51 1013.0
20260905040012 20 210 0.0 0.0 0.00 0.00 0.00 51 1013.0
20260905035012 20 186 0.0 0.0 0.00 0.00 0.00 50 1014.0
20260905034508 20 158 0.0 0.0 0.00 0.00 0.00 50 1014.0
20260905034009 20 172 0.0 0.0 0.00 0.00 0.00 49 1014.0
20260905033516 21 167 0.0 0.0 0.00 0.00 0.00 49 1014.0
20260905033009 21 172 0.0 0.0 0.00 0.00 0.00 48 1014.0
20260905032507 21 189 0.0 0.0 0.00 0.00 0.00 48 1014.0
20260905032008 21 202 0.0 0.0 0.00 0.00 0.00 48 1014.0
20260905031511 21 248 0.0 0.0 0.00 0.00 0.00 47 1014.0
20260905031014 21 206 0.0 0.0 0.00 0.00 0.00 47 1014.0
20260905030014 21 172 0.0 0.0 0.00 0.00 0.00 47 1014.0
20260905025514 21 169 0.0 0.0 0.00 0.00 0.00 47 1014.0
20260905025017 21 181 0.0 0.0 0.00 0.00 0.00 47 1014.0
20260905024510 21 169 0.0 0.0 0.00 0.00 0.00 47 1014.0
20260905024009 21 220 0.0 0.0 0.00 0.00 0.00 47 1014.0
20260905023517 21 170 0.0 0.0 0.00 0.00 0.00 47 1014.0
20260905023012 22 180 0.0 0.0 0.00 0.00 0.00 46 1014.0
20260905022515 22 162 0.0 0.0 0.00 0.00 0.00 46 1014.0
20260905022015 22 188 0.0 0.0 0.00 0.00 0.00 46 1014.0
20260905021514 22 185 0.0 0.0 0.00 0.00 0.00 46 1014.0
20260905021014 22 200 0.0 0.0 0.00 0.00 0.00 46 1014.0
20260905020009 22 167 0.0 0.0 0.00 0.00 0.00 46 1014.0
20260905015510 22 183 0.0 0.0 0.00 0.00 0.00 46 1014.0
20260905015015 22 178 0.0 0.0 0.00 0.00 0.00 46 1014.0
20260905014013 22 224 0.0 0.0 0.00 0.00 0.00 46 1014.0
20260905013511 22 158 0.0 0.0 0.00 0.00 0.00 46 1014.0
20260905013013 22 158 0.0 0.0 0.00 0.00 0.00 46 1014.0
20260905012011 22 201 0.0 0.0 0.00 0.00 0.00 46 1014.0
20260905011013 22 171 0.0 0.0 0.00 0.00 0.00 46 1014.0